sat.trackr.live / text

‹ back to catalog

STARLINK-3396

NORAD 51129 · 2022-005AB

PAYLOAD ACTIVE UNKNOWN

§ Identity

Operator
Country
US
Launch date
2022-01-19
Launch site
AFETR
Launch vehicle
Mass (kg)
RCS (m²)

Purposes: comms

External: N2YO · Heavens-Above · Gunter

§ Orbital elements

Epoch: 2026-05-25T04:51:52.067808Z

Period
95.44 min
Inclination
53.2141°
Eccentricity
0.0001177
Mean motion
15.08837836 rev/d
Perigee alt
538.9 km
Apogee alt
540.6 km
Semi-major
6,917.9 km
B*
-2.1966e-5
RAAN
315.6397°
Arg perigee
92.6116°
Mean anomaly
267.5011°
Rev number
24,028

§ Raw data

STARLINK-33961 51129U 22005AB  26145.20268597 -.00000637  00000+0 -21966-4 0  99992 51129  53.2141 315.6397 0001177  92.6116 267.5011 15.08837836240288

JSON: /api/v1/satellites/51129 · /tle

For live sub-satellite position, see the globe view (requires WebGL).

§ Visibility from observer

Set your observer location to see the next 7 days of passes ≥ 10°. The values pass through the URL so the page stays shareable.

No JS? Fill the form by hand. The geolocation button needs JavaScript.